Location: Boise
(43.6140°N, 116.2030°W)
Time: 20:34:42
(UTC-07:00)

Daily predictions for brighter satellites

Satellite Brightness Start Highest point End
(mag) Time Altitude Azimuth Time Altitude Azimuth Time Altitude Azimuth
Cosmos 2333 4.4 18:02:07 10° SSW 18:07:42 78° WNW 18:13:20 10° NNE
SPOT 3 Rocket 3.5 18:03:15 10° SSE 18:08:22 71° ENE 18:13:32 10° N
Cosmos 2360 Rocket 3.7 18:03:21 10° WSW 18:08:23 33° NW 18:13:28 10° N
MSX 3.8 18:05:35 10° SSE 18:11:13 67° ENE 18:16:55 10° N
Cosmos 332 Rocket 3.8 18:07:18 10° SSW 18:12:07 88° ESE 18:17:01 10° NNE
Cosmos 1980 4.0 18:07:23 10° S 18:12:50 51° ESE 18:18:19 10° NE
Cosmos 2151 3.6 18:09:41 10° SSE 18:13:30 35° E 18:17:20 10° NNE
Cosmos 2228 Rocket 3.3 18:09:57 10° N 18:14:22 80° W 18:18:49 10° S
CORIOLIS 4.1 18:11:30 10° SSE 18:16:50 82° ENE 18:22:14 10° NNW
Cosmos 1328 3.9 18:15:17 10° S 18:19:06 52° E 18:22:57 10° NNE
MOS 1 4.4 18:14:56 10° SSE 18:20:35 86° WSW 18:26:18 10° NNW
Cosmos 44 3.6 18:16:15 10° SSW 18:21:25 61° ESE 18:26:23 10° NE
CZ-4 R/B 2.1 18:18:58 10° S 18:22:47 57° W 18:26:39 10° NNW
Cosmos 2279 Rocket 4.3 18:17:55 10° N 18:23:52 45° ENE 18:29:48 10° SSE
ALOS 3.9 18:24:32 10° E 18:26:51 14° ENE 18:29:09 10° NNE
Cosmos 1743 Rocket 3.9 18:22:52 10° SSW 18:27:20 72° W 18:31:49 10° N
Cosmos 1328 Rocket 4.2 18:23:04 10° NNW 18:27:27 61° W 18:31:49 10° S
Cosmos 1626 3.7 18:27:04 10° SE 18:29:25 16° E 18:31:36 11° NE
MONITOR-E 4.2 18:27:24 10° SSE 18:30:31 62° ENE 18:33:39 10° N
IDEFIX/ARIANE 42P 3.4 18:26:02 10° S 18:31:09 57° W 18:36:19 10° NNW
Cosmos 2333 Rocket 2.2 18:26:30 10° SSW 18:32:09 85° ESE 18:37:50 10° NNE
Cosmos 2219 Rocket 2.4 18:27:30 10° SSW 18:33:08 75° WNW 18:38:47 10° NNE
Aureole 2 Rocket 3.1 18:30:22 10° S 18:33:53 42° ESE 18:37:43 10° NNE
Cosmos 1151 Rocket 2.9 18:30:04 10° N 18:34:21 81° E 18:38:38 10° S
SJ-6B 4.0 18:32:22 10° ESE 18:35:37 23° ENE 18:38:53 10° NNE
Cosmos 1515 Rocket 4.2 18:33:44 10° NNW 18:38:09 63° W 18:42:32 10° S
Cosmos 1703 4.2 18:35:05 10° SSE 18:38:23 27° E 18:41:43 10° NNE
Cosmos 1455 3.5 18:37:16 10° NNE 18:40:07 20° ENE 18:42:56 10° ESE
Cosmos 371 Rocket 3.7 18:36:13 10° SSW 18:40:59 67° WNW 18:45:47 10° NNE
Cosmos 2278 Rocket 2.3 18:37:24 10° NNW 18:43:06 82° WSW 18:48:46 10° SSE
Cosmos 1726 2.3 18:39:45 10° N 18:43:32 79° W 18:47:17 10° S
SMAP 4.3 18:40:05 10° S 18:44:31 45° W 18:49:01 10° NNW
SKYMED 2 3.6 18:40:39 10° NNE 18:44:58 61° E 18:49:15 10° S
Cosmos 1805 Rocket 4.1 18:42:00 10° SSE 18:46:06 37° E 18:50:13 10° NNE
Lacrosse 4 Rocket 2.8 18:45:07 10° N 18:47:56 18° NE 18:48:34 17° ENE
Cosmos 372 Rocket 4.0 18:47:10 10° NNW 18:52:17 83° WSW 18:57:22 10° SSE
FREGAT/IRIS 3.7 18:49:56 10° SE 18:52:29 25° ENE 18:55:04 10° NNE
Cosmos 1500 Rocket 4.4 18:48:58 10° SSW 18:53:10 52° WNW 18:57:27 10° N
Abrixas 2.3 18:54:38 10° WSW 18:57:33 77° SSE 18:58:45 32° ENE
Cosmos 2084 4.5 18:55:10 10° WSW 18:58:46 36° NW 19:02:06 11° NNE
Cosmos 1300 3.6 18:56:02 10° NNW 18:59:46 51° W 19:03:28 10° S
Cosmos 540 Rocket 3.7 18:55:01 10° SSW 19:00:09 71° WNW 19:05:20 10° NNE
Meteor 1-27 4.3 18:54:57 10° N 19:00:48 88° W 19:06:39 10° S
Cosmos 1340 Rocket 2.6 18:58:47 10° S 19:02:42 76° E 19:06:38 10° NNE
Cosmos 44 Rocket 4.4 18:58:02 10° WSW 19:02:53 43° NW 19:07:41 10° NNE
Sich 1 3.6 18:59:16 10° SSE 19:03:20 37° E 19:06:47 14° NNE
SL-14 R/B 3.9 18:59:45 10° SSW 19:03:37 59° W 19:07:35 10° N
Cosmos 1484 Rocket 3.8 19:02:40 10° S 19:06:28 49° W 19:10:22 10° NNW
Cosmos 2058 3.1 19:03:44 10° SSW 19:07:49 74° W 19:11:56 10° N
Cosmos 1461 3.0 19:04:08 10° SSW 19:08:13 54° ESE 19:10:07 28° NE
Cosmos 2237 Rocket 2.6 19:02:55 10° SW 19:08:30 65° WNW 19:14:07 10° NNE
Cosmos 1633 Rocket 3.5 19:06:49 10° SSE 19:10:54 39° E 19:13:18 21° NE
FAST Rocket 4.3 19:08:44 10° SSE 19:10:56 42° ESE 19:10:56 42° ESE
Cosmos 2369 Rocket 3.7 19:08:04 10° N 19:11:17 17° NE 19:11:17 17° NE
USA 215 3.2 19:08:58 10° ESE 19:15:25 75° NE 19:21:58 10° NW
SL-16 R/B 2.1 19:09:51 10° SSW 19:15:26 66° ESE 19:19:54 16° NNE
Cosmos 1869 4.4 19:13:34 10° N 19:15:53 26° NE 19:15:53 26° NE
Cosmos 304 Rocket 3.7 19:14:40 10° SSW 19:19:29 89° ESE 19:23:39 14° NNE
Meteor 1-28 Rocket 3.5 19:20:30 10° N 19:24:11 64° WNW 19:27:51 10° SSW
Orbus 7S? 4.4 19:20:42 10° NW 19:24:40 53° NE 19:29:24 23° ESE
Cosmos 2297 3.8 19:20:09 10° NNW 19:25:52 78° WSW 19:31:35 10° SSE
Lacrosse 5 3.7 19:24:32 10° NW 19:27:56 18° N 19:29:19 16° NNE
Cosmos 1356 Rocket 3.1 19:25:26 10° S 19:29:24 81° E 19:31:41 25° NNE
COSMO-SKYMED 1 3.8 19:28:51 10° N 19:32:55 40° WNW 19:36:59 10° SW
Cosmos 1707 Rocket 3.7 19:29:16 10° NNW 19:33:35 74° W 19:37:54 10° S
Cosmos 1184 Rocket 3.4 19:37:35 10° S 19:40:05 48° S 19:40:05 48° S
Lacrosse 5 rocket 3.4 19:38:45 10° WNW 19:41:56 25° SW 19:45:14 10° S
Resurs 01 Rocket 1.5 19:41:21 43° SE 19:42:37 64° ENE 19:47:01 10° N
Aureole 1 Rocket 3.8 19:38:41 10° S 19:43:58 64° ESE 19:48:31 22° NNE
Spot 2 Rocket 3.3 19:39:21 10° SSE 19:44:19 66° ENE 19:49:20 10° N
Cosmos 1666 Rocket 3.7 19:40:54 10° SSW 19:45:13 72° W 19:48:44 16° N
CZ-4C R/B 4.2 19:43:17 10° NNW 19:47:54 19° NNE 19:48:11 19° NNE
FENGYUN 3A 3.5 19:45:37 10° SSE 19:50:58 80° ENE 19:56:22 10° N
CENTAUR R/B 4.4 19:50:54 10° WNW 19:55:56 23° NNW 20:00:37 13° NNE
USA 229 DEB 3.6 19:51:07 10° SSW 19:57:53 66° ESE 19:59:44 48° ENE
USA 229 3.6 19:51:14 10° SSW 19:57:59 66° ESE 19:59:46 49° ENE
Cosmos 1538 Rocket 4.4 19:53:06 10° SSW 19:58:22 64° WNW 20:01:35 24° N
Iridium 4 Rocket 3.0 19:55:07 10° S 19:59:35 85° WSW 19:59:35 85° WSW
Cosmos 1627 Rocket 4.4 19:57:14 10° S 20:03:14 60° E 20:03:14 60° E
ALOS 2.4 19:59:02 10° S 20:03:40 74° WSW 20:08:21 10° NNW
Cosmos 1626 3.8 20:01:07 10° SW 20:04:30 33° WNW 20:06:21 21° NNW
Cosmos 923 Rocket 4.1 20:00:55 10° S 20:05:14 58° SSE 20:05:14 58° SSE
ATLAS 5 CENTAUR R/B 3.9 20:02:05 10° NNW 20:04:58 20° N 20:04:58 20° N
FengYun 1-2 T 4.5 20:05:12 10° S 20:10:43 68° WSW 20:16:15 10° NNW
Cosmos 2242 Rocket 4.3 20:11:01 10° NNW 20:15:18 51° W 20:19:36 10° S
Cosmos 1455 4.2 20:12:34 10° NNW 20:15:50 28° W 20:19:06 10° SSW
Cosmos 1603 3.8 20:14:21 10° SSW 20:18:57 61° S 20:18:57 61° S
Cosmos 1943 Rocket 4.3 20:20:03 10° N 20:20:55 14° N 20:20:55 14° N
Lacrosse 4 Rocket 3.2 20:23:00 10° NW 20:24:58 26° NW 20:24:58 26° NW
Cosmos 2026 Rocket 4.4 20:28:05 10° S 20:32:28 49° S 20:32:28 49° S
H-2A ROCKET BODY 4.2 20:40:55 10° WSW 20:50:47 23° SSW 20:51:58 22° SSW
Cosmos 2369 Rocket 3.9 20:50:53 10° NNW 20:53:07 25° NNW 20:53:07 25° NNW
SL-16 R/B 4.2 20:55:42 10° W 21:00:03 22° NW 21:01:50 19° NNW
